Location: Newark
(48.5667°N, 12.8167°E)
Time: 13:09:12
(UTC+00:00)

METEOR M2 - Pass Details

Date: 23 November 2019
Orbit: 818 x 828 km, 98.5° (Epoch: 15 December)

Event Time Altitude Azimuth Distance (km) Brightness Sun altitude
Exits shadow 16:55:46 11° 29° (NNE) 2,387 ? -15.2°
Drops below altitude 10° 16:56:05 10° 26° (NNE) 2,434 ? -15.3°
Sets 16:59:49 0° 360° (N) 3,370 ? -15.9°
